Theta_e
287 288 288 287 287 288 286 288 284 287 288 292 296 298 300 302 303 303 306 316 322 322 324 330 331 330 330 330 331 332 331 331 332 334 334 334 333 333 333 333 333 334 333 333
284 287 287 285 287 288 288 288 288 289 288 296 298 299 299 301 303 304 308 317 323 323 325 329 330 330 330 330 330 330 330 330 332 332 332 333 333 332 333 332 333 333 332 330
280 286 286 282 287 288 289 291 290 286 291 296 295 297 299 301 305 308 313 319 325 326 328 330 330 330 329 330 330 330 330 330 331 332 331 332 331 331 332 333 334 332 331 329
281 283 274 287 296 294 292 294 296 294 295 297 297 300 305 308 308 308 312 321 326 329 330 331 332 331 331 330 329 329 330 330 331 331 330 331 330 331 333 334 332 331 330 329
279 279 283 287 290 290 288 289 297 296 297 298 299 304 304 308 309 312 319 324 328 331 332 332 331 332 330 328 328 329 329 329 330 331 330 330 330 331 333 331 330 330 330 328
284 279 277 287 291 293 291 285 298 300 298 300 302 295 299 310 315 316 322 326 329 331 331 331 331 331 330 327 328 328 329 330 331 331 331 330 331 331 332 332 330 328 328 329
282 281 285 290 292 292 283 288 295 299 300 301 299 303 308 311 312 317 322 326 330 331 330 331 331 331 328 327 327 330 331 331 331 332 332 332 332 332 331 330 328 328 326 328
285 282 280 295 291 285 290 293 294 300 302 303 304 305 307 309 314 318 322 325 328 329 330 331 331 330 327 328 330 331 331 331 331 333 331 331 331 331 331 330 325 325 325 323
284 286 294 295 292 296 296 296 298 299 302 304 304 306 307 312 316 319 322 325 328 329 328 329 331 331 327 329 331 331 331 331 331 332 332 332 330 330 329 329 327 322 322 322
289 292 293 295 297 297 298 300 301 302 303 306 304 307 310 315 319 322 325 325 328 328 326 326 329 331 330 330 330 331 331 331 331 332 331 331 331 330 327 327 325 323 322 319
290 293 295 296 297 299 300 302 303 306 308 309 308 309 312 316 321 324 326 326 328 326 326 326 328 329 330 329 330 331 331 331 331 331 332 331 330 328 329 330 325 322 326 324
289 295 294 295 300 302 301 301 303 303 306 309 309 311 315 318 322 325 326 325 325 325 327 326 327 327 327 329 331 331 330 330 330 330 331 329 325 322 296 302 301 303 304 316
294 299 300 300 302 302 302 302 303 303 304 304 310 312 318 316 319 316 324 324 324 324 326 326 327 326 327 328 331 331 330 332 330 327 330 329 327 327 325 311 295 295 296 297
301 300 296 298 297 300 301 303 304 303 303 305 309 312 313 312 315 316 316 318 324 323 325 326 326 325 326 328 330 330 332 311 331 331 331 330 329 329 328 327 326 324 298 301
300 300 299 299 298 299 300 301 299 299 300 302 307 308 311 311 311 312 315 316 316 317 320 323 324 324 326 328 329 329 330 330 331 332 332 327 330 329 329 328 328 327 314 301
300 300 299 297 297 297 298 298 297 297 298 301 303 306 307 310 310 310 311 311 313 312 314 313 315 319 325 328 328 329 329 314 320 332 331 330 330 328 328 328 328 325 323 321
299 298 297 296 295 295 297 298 298 298 298 299 301 303 304 305 307 306 306 311 310 308 310 311 313 320 323 327 329 327 328 328 310 331 331 330 330 329 327 327 328 326 328 320
302 302 300 299 296 295 296 297 298 298 298 299 300 300 300 302 300 300 302 304 307 305 304 306 305 314 322 321 327 328 327 327 328 329 330 330 330 330 329 327 327 327 328 317
303 301 301 300 298 297 296 296 297 297 298 298 298 297 297 297 300 299 298 297 297 297 298 303 299 308 317 310 315 328 328 327 327 328 330 315 327 330 329 329 327 326 327 323
303 302 301 300 299 297 296 296 296 296 298 298 298 297 296 295 296 297 298 294 293 294 299 301 302 305 308 311 308 328 329 328 326 327 328 328 329 329 329 314 326 327 326 326
303 302 300 299 298 297 296 296 294 293 295 297 296 295 294 296 295 293 293 292 292 292 296 296 298 299 304 304 312 319 325 326 326 326 326 327 328 329 330 329 328 328 328 328
304 302 300 299 297 296 296 295 294 293 293 294 294 294 293 293 295 294 292 291 292 287 294 296 295 289 296 297 306 307 310 312 316 319 321 321 322 323 323 324 324 325 326 326
304 302 301 299 297 296 296 295 293 292 292 291 291 292 291 291 292 291 290 291 292 289 292 292 288 288 290 300 299 301 302 304 305 306 306 307 311 310 309 308 308 309 311 313
304 302 300 300 298 297 295 295 293 292 292 292 291 292 291 291 290 292 291 288 287 289 290 289 289 288 291 295 295 295 296 299 299 300 300 297 301 301 301 302 302 303 303 301
304 302 301 299 297 296 296 295 293 292 291 291 291 291 291 292 290 290 291 290 287 290 291 288 288 289 294 293 292 293 292 292 294 295 296 296 296 296 296 296 295 295 296 296
304 302 302 300 298 298 297 296 294 293 293 290 290 291 291 291 291 290 290 289 290 288 289 290 290 291 291 291 291 290 291 291 292 292 292 292 293 293 293 293 294 293 293 293
303 298 301 299 299 298 298 296 295 292 293 293 291 291 291 291 290 290 289 290 289 289 289 288 289 288 289 289 289 289 290 290 289 291 291 291 291 291 291 291 291 291 290 290
Wind_Speed
15 15 15 17 18 17 17 17 15 17 20 22 19 17 22 21 21 22 21 14 6 6 7 11 12 13 14 15 14 13 13 12 11 10 9 9 9 8 8 8 7 6 6 5
15 14 15 20 21 20 23 21 24 25 24 19 23 23 24 22 20 21 18 14 7 9 10 12 12 14 13 14 14 13 13 11 10 10 9 8 8 9 8 7 7 7 7 5
8 6 5 12 21 22 21 21 17 22 20 18 24 22 20 20 19 20 18 15 9 12 12 12 13 14 14 12 12 12 11 10 10 9 9 9 9 9 8 8 8 7 6 5
6 4 7 1 6 5 14 19 18 21 20 19 21 17 16 18 21 22 19 15 10 11 12 13 14 14 13 12 11 11 10 10 10 9 9 9 9 9 7 6 8 6 5 4
4 6 9 12 5 7 6 12 13 14 17 20 20 14 21 19 19 20 17 13 9 11 14 14 15 14 14 13 12 10 10 10 10 10 10 10 10 8 7 9 7 6 5 5
5 6 5 4 6 12 8 9 1 7 12 11 10 11 15 11 13 15 14 10 9 13 14 15 15 15 15 14 12 11 9 9 9 10 10 10 9 8 6 8 7 6 6 5
9 7 5 2 14 10 6 4 16 7 5 7 6 9 15 18 20 17 13 10 11 14 14 16 16 16 15 14 13 11 8 9 10 9 9 9 9 6 9 8 7 6 6 5
4 4 3 6 8 2 6 14 15 9 10 12 12 13 15 15 18 16 13 9 13 14 14 15 17 16 15 14 12 9 10 10 10 9 8 8 9 7 8 9 7 7 7 5
2 4 10 11 13 14 14 17 12 13 16 12 13 14 13 16 15 12 12 10 14 14 15 15 16 16 15 13 11 11 10 10 10 10 9 9 8 8 7 7 7 6 5 5
7 4 12 15 11 12 15 10 14 16 17 15 13 12 13 13 12 11 11 13 13 15 16 15 15 15 14 12 12 12 11 11 10 9 9 8 6 6 6 6 5 5 5 4
6 10 16 6 13 7 12 14 14 10 4 3 6 11 10 10 10 9 10 13 14 15 15 16 15 14 12 13 13 11 11 10 10 8 8 8 5 3 5 5 5 7 5 5
4 15 11 12 13 11 11 14 14 12 14 12 7 9 8 4 3 3 11 13 12 11 14 16 15 14 13 13 14 13 11 9 8 8 8 7 6 5 10 6 4 4 4 2
5 15 12 9 9 13 11 16 17 19 16 13 9 8 9 12 11 10 9 9 11 13 14 15 15 13 13 14 14 14 11 10 8 7 8 8 7 7 7 5 9 9 2 1
10 11 12 13 12 13 13 14 17 16 15 12 10 7 13 12 12 13 12 10 8 10 11 12 14 14 14 14 14 13 12 11 9 8 8 7 7 7 6 8 7 6 8 5
9 8 7 11 14 15 13 14 15 15 14 14 11 14 13 14 15 15 12 11 11 15 10 7 9 10 12 14 14 13 10 9 8 7 8 7 7 6 6 6 6 6 5 5
7 8 10 13 15 15 15 16 15 15 17 15 14 14 13 11 15 16 14 14 15 13 13 11 9 5 7 10 11 10 10 10 9 8 8 8 7 7 6 6 6 6 7 7
6 10 12 13 14 16 15 12 13 14 14 16 16 13 12 11 15 16 15 8 14 15 14 13 11 7 5 7 9 7 7 8 6 7 8 9 8 8 7 6 5 6 7 9
4 4 5 9 11 10 12 14 13 14 13 14 14 14 14 15 14 14 14 10 14 17 17 13 13 10 5 6 5 6 6 7 9 8 7 8 8 8 7 7 7 6 6 8
5 4 6 9 11 11 11 11 11 11 11 12 11 13 12 13 13 14 15 16 16 16 17 17 16 10 7 9 2 4 6 6 7 6 6 5 6 7 7 7 7 7 7 8
6 5 4 7 11 12 11 11 12 12 12 9 10 12 14 16 14 13 11 14 12 7 11 13 12 10 12 15 3 3 3 4 5 5 5 6 6 7 7 6 6 7 7 7
7 5 5 7 9 11 12 11 11 11 11 11 11 12 12 12 15 14 13 12 19 16 13 14 14 9 10 9 10 8 5 4 3 2 3 2 3 3 2 3 3 3 1 1
6 6 5 6 8 10 12 12 13 11 11 11 13 13 13 14 12 12 15 11 8 13 11 11 10 13 15 14 11 12 11 10 8 6 8 8 7 6 7 6 6 5 5 4
6 5 5 6 7 8 10 12 12 13 13 13 13 13 12 10 10 8 9 13 10 11 9 10 12 12 10 12 11 11 12 11 10 9 10 11 10 9 9 11 10 10 10 10
8 7 7 7 6 6 10 10 11 12 11 12 13 13 9 7 8 7 8 8 9 10 13 12 13 14 16 11 11 12 11 11 11 12 12 13 11 10 9 9 11 11 10 11
9 9 8 7 7 6 6 7 8 9 10 11 11 10 11 9 8 7 8 9 12 12 12 13 16 16 13 12 12 12 12 13 12 12 11 11 11 13 10 11 12 12 11 10
8 6 6 6 6 5 5 4 6 5 7 8 8 9 9 8 7 7 8 9 11 12 11 12 12 12 13 13 13 14 12 11 11 11 12 13 12 12 13 13 11 11 10 9
7 6 7 6 5 5 5 5 5 6 6 7 8 8 9 9 9 10 10 10 10 11 11 11 12 13 12 12 12 13 12 12 14 12 12 12 12 11 11 11 10 11 11 11
Wind_Direction
254 268 283 280 280 279 267 257 257 264 252 265 281 302 304 310 311 315 320 327 266 211 188 167 155 149 148 141 140 142 142 142 142 138 136 138 137 146 151 150 148 146 151 147
267 263 258 269 269 265 258 259 258 261 265 274 280 281 281 292 302 303 306 317 243 203 181 174 161 153 151 148 145 146 146 144 142 141 141 142 147 150 151 148 153 147 139 147
262 246 285 269 249 243 254 253 258 252 257 259 270 270 280 290 296 293 297 302 235 198 185 175 165 154 155 153 152 153 149 145 146 144 144 152 155 154 156 157 139 137 135 151
265 275 247 352 65 330 287 277 269 260 257 256 258 270 280 281 282 284 293 290 229 193 180 171 163 158 151 155 158 159 154 150 150 150 151 153 152 158 168 134 138 139 145 142
241 205 285 283 43 338 312 296 281 270 242 240 251 278 273 266 278 282 279 287 226 190 176 165 163 159 158 161 162 166 163 161 157 158 155 155 152 162 147 144 141 146 140 140
235 254 269 79 329 327 298 267 273 298 234 245 256 259 265 290 315 315 297 284 207 185 170 166 160 160 163 164 172 178 170 170 160 163 156 156 152 158 145 142 139 140 134 114
245 248 255 49 333 314 214 14 324 312 286 283 251 253 299 303 297 295 289 269 202 177 172 166 158 160 167 168 181 183 176 161 160 159 148 138 144 156 148 145 138 136 133 111
274 280 310 339 326 304 295 297 293 291 288 287 289 292 286 290 281 282 269 229 191 179 172 164 161 164 167 177 179 173 167 163 157 152 141 139 151 149 148 143 146 142 137 117
266 288 277 301 270 273 283 289 279 296 293 291 283 279 292 280 276 271 252 223 191 180 162 166 167 170 173 178 164 171 164 159 156 152 140 142 153 153 153 159 156 153 146 143
282 275 289 305 299 273 291 321 291 280 277 269 262 272 270 271 266 258 232 201 188 173 166 161 170 174 179 163 164 167 160 157 155 153 141 145 151 156 151 167 162 164 149 146
268 286 311 286 306 327 300 295 304 319 322 278 279 289 267 261 264 255 209 184 180 176 167 165 170 173 167 163 164 167 159 155 156 143 150 144 134 145 163 168 175 167 165 154
302 309 313 310 322 349 340 328 337 1 11 352 336 288 255 118 17 204 171 163 169 180 172 163 171 171 169 164 168 161 158 159 160 152 153 144 150 137 44 44 133 99 146 188
289 311 315 341 326 335 331 339 354 10 12 351 339 321 82 77 64 60 113 157 170 178 173 162 165 172 170 167 170 167 165 159 156 162 161 156 168 166 150 88 67 52 90 157
346 344 353 355 342 344 350 350 352 2 6 3 359 39 65 66 64 60 56 41 156 151 156 161 163 172 170 170 170 171 169 160 167 175 171 168 173 174 162 161 158 155 54 67
3 10 360 351 4 7 8 8 354 357 358 19 11 45 54 64 66 57 55 69 71 71 65 136 163 164 177 173 171 172 166 168 178 178 178 167 169 172 171 162 150 140 132 86
347 354 12 14 8 9 13 15 3 358 358 8 18 25 35 58 72 65 55 55 60 60 59 56 64 26 192 181 177 170 177 167 176 175 165 176 172 177 175 167 160 151 165 154
360 0 360 10 10 8 13 14 7 358 4 7 18 27 25 48 66 59 51 78 78 62 54 44 15 18 46 175 185 175 179 168 191 177 180 183 185 184 181 179 175 166 164 157
37 33 21 10 16 10 14 11 15 11 16 7 12 24 27 32 48 42 48 20 53 56 38 21 3 340 54 75 185 183 190 181 188 195 184 187 191 188 183 186 183 176 159 140
50 42 23 20 22 26 19 15 15 24 20 25 18 39 28 35 40 50 34 30 28 35 7 2 351 1 23 34 143 197 183 196 195 203 199 175 183 196 192 189 185 184 170 151
74 53 43 25 31 34 28 23 24 26 23 25 35 42 47 37 25 36 53 56 38 40 359 357 10 3 27 16 45 132 174 187 199 204 210 193 192 202 207 207 201 190 183 180
79 62 60 28 27 34 36 31 35 33 28 28 34 42 48 53 56 37 31 27 11 9 5 13 23 358 48 24 29 48 92 84 84 127 146 195 141 172 204 213 202 217 183 221
92 86 75 45 33 36 42 38 42 41 41 38 38 38 40 39 40 53 55 44 16 358 15 28 21 6 31 24 36 39 42 56 55 66 73 69 60 73 80 63 62 69 64 55
102 107 107 75 53 54 56 51 45 43 40 39 39 40 45 42 38 26 38 21 39 26 35 36 10 23 46 55 49 55 52 50 60 62 63 63 66 66 66 72 66 55 53 53
132 133 121 111 93 62 54 58 61 54 49 51 51 44 37 43 41 38 53 36 27 43 42 28 27 40 55 51 47 50 53 55 48 52 57 56 65 58 52 63 67 57 53 52
146 138 129 118 104 87 75 69 73 65 62 53 51 51 48 46 48 33 41 43 33 47 46 33 41 48 58 58 55 55 51 48 50 55 56 60 63 69 52 53 62 64 53 49
153 147 126 112 111 112 96 67 75 70 78 71 60 56 57 55 50 55 54 46 50 54 53 46 41 48 51 51 56 55 50 52 57 61 61 58 53 57 52 49 42 55 58 47
142 139 130 121 121 129 116 100 87 82 78 82 82 64 64 65 66 68 59 56 52 52 58 55 53 51 52 51 51 55 55 54 44 51 51 54 53 51 45 51 46 46 45 49